Regional Weather Roundup
Issued by NWS

Home | Current Version | Previous Version | Graphics & Text | Print | Product List | Glossary Off
Versions: 1 2 3 4 5 6 7 8 9 10 11 12 13 14 15 16 17 18 19 20 21 22 23 24 25 26 27 28 29 30 31 32 33 34 35 36 37 38 39 40 41 42 43 44 45 46 47 48 49 50

000
ASUS43 KTOP 222359
RWRKS

WEATHER ROUNDUP FOR KANSAS
NATIONAL WEATHER SERVICE GOODLAND KS
700 PM CDT MON SEP 22 2014

NOTE:  "FAIR" INDICATES FEW OR NO CLOUDS BELOW 12,000 FEET WITH NO
SIGNIFICANT WEATHER AND/OR OBSTRUCTIONS TO VISIBILITY.

KSZ001>006-013>018-027>032-041>047-230100-
NORTHWEST KANSAS

CITY           SKY/WX    TMP DP  RH WIND       PRES   REMARKS
GOODLAND       CLOUDY    70  53  54 S22G32    30.09R
6HR MIN TEMP:  70; 6HR MAX TEMP:  77; 6HR PCP: TRACE;

HAYS           MOCLDY    75  45  33 SE13      30.15S
HILL CITY      CLOUDY    74  45  35 SE12      30.12F
6HR MIN TEMP:  74; 6HR MAX TEMP:  81; 6HR PCP: TRACE;

RUSSELL        MOCLDY    72  47  40 SE8       30.15F
6HR MIN TEMP:  71; 6HR MAX TEMP:  77;

$$

KSZ061>065-074>080-084>089-230100-
SOUTHWEST KANSAS

CITY           SKY/WX    TMP DP  RH WIND       PRES   REMARKS
DODGE CITY     PTCLDY    74  44  34 S15       30.17S
6HR MIN TEMP:  74; 6HR MAX TEMP:  81;

ELKHART          N/A     75  55  49 S15         N/A
GARDEN CITY    CLOUDY    75  47  36 S15       30.14F
6HR MIN TEMP:  74; 6HR MAX TEMP:  79;

GREAT BEND     PTCLDY    75  43  31 S12       30.16S
LIBERAL        CLOUDY    77  48  36 S15G21    30.17F
PRATT          PTCLDY    75  37  25 S12       30.19S
$$

KSZ066>073-081>083-090>101-230100-
SOUTHEAST KANSAS

CITY           SKY/WX    TMP DP  RH WIND       PRES   REMARKS
CHANUTE        PTCLDY    69  55  60 E5        30.21F
6HR MIN TEMP:  69; 6HR MAX TEMP:  75;

COFFEYVILLE    CLEAR     70  55  59 E3        30.20S
6HR MIN TEMP:  70; 6HR MAX TEMP:  76;

HUTCHINSON     PTCLDY    75  43  31 SE7       30.18S
6HR MIN TEMP:  73; 6HR MAX TEMP:  79;

NEWTON         PTCLDY    72  45  37 E5        30.21S
PARSONS        CLEAR     70  53  54 CALM      30.22S
6HR MIN TEMP:  70; 6HR MAX TEMP:  76;

WICHITA INTL   PTCLDY    74  46  36 S8        30.18S
6HR MIN TEMP:  73; 6HR MAX TEMP:  80;

WICHITA JABRA  CLEAR     73  45  36 S7        30.18F
6HR MIN TEMP:  73; 6HR MAX TEMP:  78;

WINFIELD       CLEAR     72  49  44 SE8       30.20S
6HR MIN TEMP:  72; 6HR MAX TEMP:  76;

$$

KSZ007>012-019>026-033>040-048>060-102>105-230100-
NORTHEAST KANSAS

CITY           SKY/WX    TMP DP  RH WIND       PRES   REMARKS
CONCORDIA      MOCLDY    67  52  58 S6        30.17F
6HR MIN TEMP:  67; 6HR MAX TEMP:  74;

EMPORIA        PTCLDY    68  53  58 SE5       30.20F
6HR MIN TEMP:  68; 6HR MAX TEMP:  74;

LAWRENCE       PTCLDY    68  51  54 S7        30.21F
6HR MIN TEMP:  68; 6HR MAX TEMP:  75;

MANHATTAN      PTCLDY    70  50  49 SE6       30.19F
6HR MIN TEMP:  70; 6HR MAX TEMP:  77;

OLATHE IND     PTCLDY    67  54  63 SE3       30.23S
6HR MIN TEMP:  67; 6HR MAX TEMP:  74;

OLATHE EXE     PTCLDY    67  53  61 S3        30.22S
6HR MIN TEMP:  67; 6HR MAX TEMP:  73;

SALINA         PTCLDY    71  51  49 SE7       30.17F
6HR MIN TEMP:  71; 6HR MAX TEMP:  77;

TOPEKA BILLARD PTCLDY    69  53  56 SE5       30.20F
6HR MIN TEMP:  69; 6HR MAX TEMP:  77;

TOPEKA FORBES  PTCLDY    68  52  56 E5        30.20F
6HR MIN TEMP:  68; 6HR MAX TEMP:  76;

$$



USA.gov is the U.S. government's official web portal to all federal, state and local government web resources and services.